TimeEDT,TemperatureF,Dew PointF,Humidity,Sea Level PressureIn,VisibilityMPH,Wind Direction,Wind SpeedMPH,Gust SpeedMPH,PrecipitationIn,Events,Conditions,WindDirDegrees,DateUTC
12:40 AM,73.4,69.8,88,29.94,10.0,SSE,4.6,-,N/A,,Overcast,160,2013-07-01 04:40:00
12:53 AM,73.0,70.0,90,29.93,10.0,Variable,3.5,-,N/A,,Overcast,0,2013-07-01 04:53:00
1:00 AM,73.4,71.6,94,29.94,10.0,South,3.5,-,N/A,,Overcast,190,2013-07-01 05:00:00
1:53 AM,73.0,70.0,90,29.94,7.0,South,5.8,-,N/A,,Overcast,180,2013-07-01 05:53:00
2:37 AM,73.4,69.8,88,29.94,10.0,SSE,4.6,-,N/A,,Overcast,160,2013-07-01 06:37:00
2:53 AM,73.0,70.0,90,29.93,10.0,SSE,3.5,-,N/A,,Overcast,160,2013-07-01 06:53:00
3:11 AM,73.4,69.8,88,29.93,9.0,South,6.9,-,N/A,,Overcast,170,2013-07-01 07:11:00
3:21 AM,73.4,71.6,94,29.94,7.0,South,5.8,-,N/A,,Overcast,170,2013-07-01 07:21:00
3:49 AM,73.4,69.8,88,29.94,10.0,South,5.8,-,N/A,,Overcast,180,2013-07-01 07:49:00
3:53 AM,73.0,70.0,90,29.93,10.0,South,8.1,-,N/A,,Overcast,180,2013-07-01 07:53:00
4:53 AM,73.0,70.0,90,29.94,10.0,South,3.5,-,N/A,,Overcast,180,2013-07-01 08:53:00
5:06 AM,73.4,69.8,88,29.95,10.0,South,3.5,-,N/A,,Overcast,180,2013-07-01 09:06:00
5:53 AM,73.0,70.0,90,29.96,6.0,Calm,Calm,-,N/A,,Overcast,0,2013-07-01 09:53:00
5:59 AM,73.4,69.8,88,29.96,1.8,Calm,Calm,-,0.00,Rain,Light Rain,0,2013-07-01 09:59:00
6:06 AM,73.4,69.8,88,29.96,3.0,SSE,3.5,-,0.00,Rain,Light Rain,150,2013-07-01 10:06:00
6:53 AM,73.0,71.1,93,29.96,8.0,SSE,3.5,-,0.00,,Overcast,150,2013-07-01 10:53:00
7:53 AM,73.9,71.1,91,29.97,9.0,SE,4.6,-,N/A,,Overcast,140,2013-07-01 11:53:00
8:37 AM,73.4,71.6,94,29.98,3.0,SSE,4.6,-,N/A,,Overcast,160,2013-07-01 12:37:00
8:50 AM,73.4,71.6,94,29.98,10.0,South,5.8,-,N/A,,Overcast,170,2013-07-01 12:50:00
8:53 AM,75.0,71.1,87,29.98,10.0,Variable,5.8,-,N/A,,Overcast,0,2013-07-01 12:53:00
9:41 AM,73.4,71.6,94,29.99,2.5,South,5.8,-,N/A,,Overcast,180,2013-07-01 13:41:00
9:53 AM,73.9,72.0,93,29.98,2.5,South,5.8,-,N/A,,Overcast,170,2013-07-01 13:53:00
10:05 AM,73.4,71.6,94,29.99,5.0,South,4.6,-,N/A,,Overcast,170,2013-07-01 14:05:00
10:14 AM,73.4,71.6,94,29.99,1.8,South,8.1,-,0.04,Rain,Rain,170,2013-07-01 14:14:00
10:24 AM,73.4,71.6,94,29.98,3.0,SSE,5.8,-,0.05,Rain,Light Rain,150,2013-07-01 14:24:00
10:30 AM,73.4,73.4,100,29.99,1.8,SSE,3.5,-,0.08,Rain,Heavy Rain,160,2013-07-01 14:30:00
10:37 AM,75.2,73.4,94,29.99,3.0,South,5.8,-,0.08,Rain,Light Rain,170,2013-07-01 14:37:00
10:53 AM,75.0,73.0,94,29.99,10.0,South,8.1,-,0.08,,Overcast,170,2013-07-01 14:53:00
11:37 AM,75.2,73.4,94,30.00,9.0,South,6.9,-,N/A,,Overcast,180,2013-07-01 15:37:00
11:53 AM,77.0,73.0,88,29.99,10.0,South,8.1,-,N/A,,Overcast,170,2013-07-01 15:53:00
12:30 PM,77.0,73.4,89,29.98,10.0,SSE,10.4,-,0.00,Rain,Light Rain,160,2013-07-01 16:30:00
12:41 PM,77.0,73.4,89,29.98,10.0,South,10.4,20.7,0.00,,Overcast,170,2013-07-01 16:41:00
12:53 PM,77.0,72.0,84,29.98,10.0,South,11.5,23.0,0.00,,Overcast,180,2013-07-01 16:53:00
1:06 PM,77.0,71.6,83,29.98,9.0,SSE,10.4,20.7,0.00,Rain,Light Rain,160,2013-07-01 17:06:00
1:46 PM,75.2,73.4,94,29.99,6.0,South,10.4,-,0.02,Rain,Light Rain,180,2013-07-01 17:46:00
1:53 PM,75.9,73.0,91,29.99,7.0,South,10.4,-,0.02,Rain,Light Rain,180,2013-07-01 17:53:00
2:30 PM,75.2,71.6,89,30.00,6.0,South,8.1,-,0.00,Rain,Light Rain,180,2013-07-01 18:30:00
2:53 PM,75.9,73.0,91,30.00,4.0,South,8.1,-,0.02,Rain,Light Rain,190,2013-07-01 18:53:00
3:01 PM,75.2,71.6,89,30.00,10.0,South,6.9,-,0.00,Rain,Light Rain,180,2013-07-01 19:01:00
3:53 PM,75.0,72.0,90,30.00,10.0,South,9.2,-,0.01,Rain,Light Rain,170,2013-07-01 19:53:00
4:01 PM,75.2,71.6,89,30.01,10.0,South,9.2,-,0.00,,Mostly Cloudy,170,2013-07-01 20:01:00
4:19 PM,75.2,71.6,89,30.01,10.0,South,8.1,-,0.00,,Mostly Cloudy,170,2013-07-01 20:19:00
4:53 PM,75.0,71.1,87,30.00,10.0,South,4.6,-,0.00,,Mostly Cloudy,180,2013-07-01 20:53:00
5:01 PM,75.2,69.8,83,30.00,10.0,South,4.6,-,0.00,Rain,Light Rain,190,2013-07-01 21:01:00
5:53 PM,75.0,72.0,90,30.01,10.0,South,5.8,-,0.00,,Overcast,190,2013-07-01 21:53:00
6:37 PM,75.2,71.6,89,30.01,10.0,SSW,5.8,-,N/A,,Scattered Clouds,200,2013-07-01 22:37:00
6:53 PM,75.0,71.1,87,30.02,10.0,South,6.9,-,N/A,,Partly Cloudy,180,2013-07-01 22:53:00
7:13 PM,75.2,71.6,89,30.03,10.0,Variable,3.5,-,N/A,,Mostly Cloudy,0,2013-07-01 23:13:00
7:28 PM,75.2,71.6,89,30.03,10.0,South,5.8,-,0.00,Rain,Light Rain,170,2013-07-01 23:28:00
7:53 PM,73.9,71.1,91,30.03,10.0,SSE,4.6,-,0.00,,Overcast,160,2013-07-01 23:53:00
8:53 PM,73.9,70.0,87,30.05,10.0,South,9.2,-,N/A,,Overcast,180,2013-07-02 00:53:00
9:53 PM,73.0,70.0,90,30.07,10.0,South,5.8,-,N/A,,Overcast,190,2013-07-02 01:53:00
10:38 PM,73.4,71.6,94,30.07,6.0,South,5.8,-,N/A,,Overcast,180,2013-07-02 02:38:00
10:53 PM,73.0,71.1,93,30.07,4.0,South,5.8,-,N/A,,Overcast,190,2013-07-02 02:53:00
11:27 PM,73.4,71.6,94,30.07,8.0,South,3.5,-,N/A,,Overcast,190,2013-07-02 03:27:00
11:53 PM,73.0,71.1,93,30.07,9.0,South,4.6,-,N/A,,Overcast,180,2013-07-02 03:53:00